Location: Newark
(56.0692°N, 115.8617°E)
Time: 12:46:14
(UTC+00:00)

Vanguard 2 Rocket - Pass Details

Date: 04 June 2020
Orbit: 556 x 3325 km, 32.9° (Epoch: 14 July)

Event Time Altitude Azimuth Distance (km) Brightness Sun altitude
Rises 07:34:51 0° 223° (SW) 3,850 10.8 40.5°
Reaches altitude 10° 07:38:21 10° 203° (SSW) 3,296 10.4 40.0°
Maximum altitude 07:43:21 17° 166° (SSE) 3,346 10.0 39.4°
Drops below altitude 10° 07:49:58 10° 132° (SE) 4,579 10.3 38.5°
Sets 07:56:24 0° 117° (ESE) 6,185 10.8 37.6°
